Monday, February 25, 2013

Avoca, PA
on Saturday, January 26, 2013

Saturday
Previous Day Next Day
Daily Summary
 ActualAverageRecord
Temperature
Mean Temperature °F 26°F  
Max Temperature 23°F 33°F 67°F (1950)
Min Temperature 7°F 18°F -5°F (1961)
Degree Days
Heating Degree Days 50 39  
Month to date heating degree days 963 1013  
Since 1 July heating degree days 3077 3391  
Cooling Degree Days 0 0  
Month to date cooling degree days 0 0  
Year to date cooling degree days 0 0  
Moisture
Dew Point 6°F   
Average Humidity 69    
Maximum Humidity 91    
Minimum Humidity 47    
Precipitation
Precipitation T in 0.08 in 0.98 in (1986)
Month to date precipitation 0.78 1.97  
Year to date precipitation 0.78 1.97  
Wind
Wind Speed 4 mph   
Max Wind Speed 16 mph   
Max Gust Speed 21 mph   
Visibility 9 miles   
Events     

Key: T is trace of precipitation, MM is missing value
Source: NWS Daily Summary
Time(EST)TemperatureDew PointHumidity Pressure Visibility Wind DirectionWind SpeedGust SpeedPrecipitationEvents Conditions
12:54 AM 10.0°F 6.1°F 84% 30.07 in 7.0 miles Calm Calm - N/A   Mostly Cloudy
1:09 AM 8.6°F 5.0°F 85% 30.02 in 7.0 miles Calm Calm - N/A   Partly Cloudy
1:54 AM 9.0°F 5.0°F 84% 30.07 in 8.0 miles Calm Calm - N/A   Partly Cloudy
2:08 AM 8.6°F 5.0°F 85% 30.02 in 7.0 miles Calm Calm - N/A   Mostly Cloudy
2:54 AM 9.0°F 6.1°F 88% 30.08 in 7.0 miles Calm Calm - N/A   Mostly Cloudy
3:32 AM 8.6°F 6.8°F 92% 30.03 in 8.0 miles Calm Calm - N/A   Overcast
3:54 AM 10.9°F 7.0°F 84% 30.08 in 8.0 miles Calm Calm - N/A   Overcast
4:54 AM 9.0°F 6.1°F 88% 30.09 in 8.0 miles SSW 3.5 mph - N/A   Mostly Cloudy
5:04 AM 8.6°F 5.0°F 85% 30.05 in 8.0 miles SW 4.6 mph - N/A   Mostly Cloudy
5:19 AM 8.6°F 5.0°F 85% 30.05 in 9.0 miles Calm Calm - N/A   Mostly Cloudy
5:54 AM 8.1°F 5.0°F 87% 30.11 in 8.0 miles WSW 5.8 mph - N/A   Overcast
6:21 AM 8.6°F 5.0°F 85% 30.07 in 9.0 miles Calm Calm - N/A   Overcast
6:54 AM 9.0°F 5.0°F 84% 30.14 in 9.0 miles Calm Calm - N/A   Overcast
7:43 AM 10.4°F 6.8°F 85% 30.11 in 9.0 miles Calm Calm - N/A   Overcast
7:54 AM 10.9°F 5.0°F 77% 30.16 in 9.0 miles Calm Calm - N/A   Overcast
8:15 AM 10.4°F 5.0°F 79% 30.12 in 7.0 miles Calm Calm - N/A   Overcast
8:25 AM 10.4°F 6.8°F 85% 30.13 in 8.0 miles Calm Calm - N/A   Overcast
8:36 AM 10.4°F 6.8°F 85% 30.13 in 8.0 miles NW 3.5 mph - N/A   Overcast
8:54 AM 12.0°F 6.1°F 77% 30.19 in 7.0 miles Calm Calm - N/A   Overcast
9:54 AM 12.9°F 6.1°F 74% 30.21 in 8.0 miles Calm Calm - N/A   Overcast
10:01 AM 12.2°F 6.8°F 79% 30.16 in 8.0 miles Calm Calm - N/A   Overcast
10:54 AM 14.0°F 7.0°F 74% 30.24 in 9.0 miles SW 3.5 mph - N/A   Overcast
11:15 AM 15.8°F 6.8°F 68% 30.18 in 10.0 miles Variable 6.9 mph - N/A   Overcast
11:28 AM 17.6°F 6.8°F 63% 30.17 in 10.0 miles Variable 5.8 mph - N/A   Overcast
11:54 AM 17.1°F 5.0°F 59% 30.20 in 10.0 miles NNW 10.4 mph - 0.01 in   Partly Cloudy
12:54 PM 19.0°F 6.1°F 57% 30.20 in 10.0 miles NNW 5.8 mph - 0.00 in   Partly Cloudy
1:54 PM 21.0°F 7.0°F 55% 30.20 in 10.0 miles WNW 11.5 mph - 0.00 in   Partly Cloudy
2:54 PM 21.9°F 6.1°F 51% 30.21 in 10.0 miles NW 9.2 mph - 0.00 in   Mostly Cloudy
3:54 PM 21.0°F 6.1°F 53% 30.22 in 10.0 miles NW 12.7 mph - N/A   Overcast
4:54 PM 21.0°F 5.0°F 50% 30.25 in 10.0 miles NNW 9.2 mph - N/A   Overcast
5:54 PM 18.0°F 6.1°F 60% 30.29 in 10.0 miles NNW 5.8 mph - N/A   Partly Cloudy
6:54 PM 16.0°F 5.0°F 62% 30.30 in 10.0 miles North 4.6 mph - N/A   Clear
7:54 PM 14.0°F 5.0°F 67% 30.32 in 10.0 miles Calm Calm - N/A   Clear
8:54 PM 15.1°F 5.0°F 64% 30.34 in 10.0 miles Calm Calm - N/A   Clear
9:54 PM 12.9°F 5.0°F 71% 30.36 in 10.0 miles Calm Calm - N/A   Clear
10:54 PM 12.9°F 5.0°F 71% 30.38 in 10.0 miles Calm Calm - N/A   Clear
11:54 PM 12.0°F 5.0°F 73% 30.39 in 10.0 miles SW 3.5 mph - N/A   Clear
Astronomy
Sunrise:07:19 AM (EST) Moon Rise:05:05 PM (EST)1/26
Sunset:05:12 PM (EST) Moon Set:06:35 AM (EST)1/26
Moon Phase
Jan. 26 Jan. 26 Feb. 03 Feb. 10 Feb. 17

Copyright © 2014 The Weather Underground, Inc.
8,